Regional Weather Roundup
Issued by NWS

Home | Current Version | Previous Version | Graphics & Text | Print | Product List | Glossary On
Versions: 1 2 3 4 5 6 7 8 9 10 11 12 13 14 15 16 17 18 19 20 21 22 23 24 25 26 27 28 29 30 31 32 33 34 35 36 37 38 39 40 41 42 43 44 45 46 47 48 49 50
925
ASUS43 KLMK 092302
RWRKY
KENTUCKY REGIONAL WEATHER ROUNDUP
NATIONAL WEATHER SERVICE LOUISVILLE KY
600 PM EST FRI DEC 09 2016

NOTE "FAIR" INDICATES FEW OR NO CLOUDS BELOW 12,000 FEET
WITH NO SIGNIFICANT WEATHER AND/OR OBSTRUCTIONS TO VISIBILITY.

KYZ001>023-026-027-061>063-070>075-100000-
WESTERN AND SOUTH CENTRAL KENTUCKY

CITY           SKY/WX    TMP DP  RH WIND       PRES   REMARKS
PADUCAH        CLEAR     31  12  45 CALM      30.56F
HENDERSON      PTCLDY    28  12  50 CALM      30.58F
OWENSBORO      PTCLDY    27  17  66 NW6       30.58F WCI  20
HOPKINSVILLE   CLEAR     29  16  59 N6        30.55F WCI  22
BOWLING GREEN  CLEAR     30  15  53 NW9       30.57R WCI  22
GLASGOW        NOT AVBL
$$

KYZ024-025-028>034-038-045-046-053-100000-
NORTH CENTRAL KENTUCKY

CITY           SKY/WX    TMP DP  RH WIND       PRES   REMARKS
LOUISVILLE/SDF CLOUDY    26  12  55 W12       30.58R WCI  16
LOUISVILLE/LOU CLOUDY    27  13  55 W9        30.58S WCI  18
FORT KNOX      CLOUDY    24  13  63 W7        30.56R WCI  16
$$

KYZ035>037-039>044-047>052-055>060-089>105-100000-
NORTHEAST KENTUCKY

CITY           SKY/WX    TMP DP  RH WIND       PRES   REMARKS
LEXINGTON      CLOUDY    24  13  62 NW5       30.54S WCI  18
COVINGTON      CLOUDY    24  13  62 SW7       30.53R WCI  16
FRANKFORT      CLOUDY    25  12  58 NW5       30.55S WCI  19
$$

KYZ054-064>069-076>088-106>120-100000-
SOUTHEAST KENTUCKY

CITY           SKY/WX    TMP DP  RH WIND       PRES   REMARKS
JACKSON        CLOUDY    24  13  62 VRB5      30.50R WCI  18
LONDON         CLEAR     24  13  62 N6        30.50S WCI  17
SOMERSET       CLOUDY    27  14  59 CALM      30.54S
MIDDLESBORO    CLEAR     27  16  62 CALM      30.50S
MONTICELLO     CLEAR     25  16  68 N10       30.54S WCI  15
$$





USA.gov is the U.S. government's official web portal to all federal, state and local government web resources and services.